Volver al catálogo

TITAN 3C TRANSTAGE DEB

LostMEO
NORAD 59982·DEBRIS·🇺🇸 United States

Lanzado Sep 26, 1968 desde Cape Canaveral Space Force Station

Loading…

Próximos Pases (próximas 24 horas)

TLE

ObsoletoSource: Space-Track

Época: Jul 8, 2026, 00:12 UTC

1 59982U 68081AQ  26189.00861568 -.00000186  00000-0  00000-0 0  9992
2 59982   2.1107  31.7917 0696849 254.8883  97.2223  0.99569061 19318

Sigue TITAN 3C TRANSTAGE DEB en tiempo real con AllMySat

Download on the App Store